"Pseudo-MPEC" for 1995-062A = NORAD 23715 = Infrared Space Observatory (ISO)

Created 2017 Sep 1 15:43:36 UT using Find_Orb

Astrometry:
1995-062A    tC2016 05 12.25210 17 46 02.87 -00 04 55.3         x14.1 R D0546Y00
1995-062A    tC2016 05 12.25314 17 46 18.15 -00 05 31.1         x13.6 R D0546Y00
1995-062A    tC2016 05 12.25411 17 46 32.54 -00 06 04.3         x13.9 R D0546Y00
1995-062A    tC2016 05 27.01717 18 36 48.70 -00 45 12.3         x14.6 R D0546Y00
1995-062A    tC2016 05 27.01816 18 37 02.97 -00 45 35.1         x14.7 R D0546Y00
1995-062A    tC2016 05 27.01924 18 37 18.22 -00 46 00.8         x14.5 R D0546Y00
1995-062A     C2016 05 30.13503 19 15 45.35 -01 36 17.8         x14.1 R D0547Y00
1995-062A     C2016 05 30.13616 19 15 55.84 -01 36 30.6         x14.3 R D0547Y00
1995-062A     C2016 05 30.13718 19 16 05.55 -01 36 42.6         x13.9 R D0547Y00
1995-062A    tC2016 07 02.15586 17 38 38.16 +00 06 18.1         x14.3 R      Y00
1995-062A    tC2016 07 02.15718 17 39 12.78 +00 04 54.9         x14.3 R      Y00
1995-062A    tC2016 07 02.15827 17 39 41.41 +00 03 45.8         x14.3 R      Y00
1995-062A    tC2016 07 02.19715 17 54 45.94 -00 29 54.7         x13.5 R      Y00
1995-062A    tC2016 07 02.19839 17 55 11.57 -00 30 47.2         x14.2 R      Y00
1995-062A    tC2016 07 02.19930 17 55 30.37 -00 31 26.2         x14.5 R      Y00
1995-062A    tC2016 07 06.20117 18 28 36.07 -01 18 46.5         x14.3 R      Y00
1995-062A    tC2016 07 06.20272 18 28 57.08 -01 19 22.9         x14.4 R      Y00
1995-062A    tC2016 07 06.20382 18 29 12.18 -01 19 49.0         x14.1 R      Y00
1995-062A    tC2016 07 14.95799 18 39 45.66 -00 52 55.3         x14.2 R D0550Y00
1995-062A    tC2016 07 14.95908 18 40 02.82 -00 53 38.0         x13.2 R D0550Y00
1995-062A    tC2016 07 14.96033 18 40 22.43 -00 54 26.0         x13.3 R D0550Y00
1995-062A     C2016 07 15.10816 19 08 34.08 -01 56 40.4         x14.1 R D0550Y00
1995-062A     C2016 07 15.10984 19 08 49.43 -01 57 08.0         x13.8 R D0550Y00
1995-062A     C2016 07 15.11092 19 08 59.11 -01 57 24.5         x14.1 R D0550Y00
1995-062A    tC2016 07 28.96665 20 03 51.95 -02 29 51.7         x14.7 R D0550Y00
1995-062A    tC2016 07 28.96769 20 04 02.83 -02 30 02.6         x14.4 R D0550Y00
1995-062A    tC2016 07 28.96878 20 04 14.26 -02 30 13.7         x14.4 R D0550Y00
1995-062A    tC2016 08 01.93073 20 19 01.96 -02 35 19.8         x14.5 R D0550Y00
1995-062A    tC2016 08 01.93175 20 19 14.43 -02 35 29.2         x13.9 R D0550Y00
1995-062A    tC2016 08 01.93286 20 19 28.25 -02 35 38.7         x14.1 R D0550Y00
1995-062A    tC2016 08 03.93405 20 31 13.90 -02 39 46.6         x14.4 R D0550Y00
1995-062A    tC2016 08 03.93505 20 31 27.01 -02 39 53.6         x13.6 R D0550Y00
1995-062A    tC2016 08 03.93696 20 31 52.09 -02 40 06.3         x14.1 R D0550Y00
1995-062A    tC2016 09 04.00236 19 13 20.53 -02 12 11.0         x14.8 R D0550Y00
1995-062A    tC2016 09 04.00336 19 13 32.71 -02 12 33.7         x14.2 R D0550Y00
1995-062A    tC2016 09 04.00461 19 13 47.86 -02 12 59.8         x14.6 R D0550Y00
1995-062A    tC2016 09 29.97284 21 52 08.77 -02 50 05.9         x14.3 R D0551Y00
1995-062A    tC2016 09 29.97397 21 52 30.01 -02 49 43.5         x15.0 R D0551Y00
1995-062A    tC2016 09 29.97501 21 52 49.55 -02 49 22.0         x15.1 R D0551Y00
1995-062A    tC2017 08 05.12750 21 32 06.00 -01 28 17.3          14.5 R      Y00
1995-062A    tC2017 08 05.12864 21 32 42.81 -01 28 45.6          14.2 R      Y00
1995-062A    tC2017 08 05.12969 21 33 16.90 -01 29 09.0          13.8 R      Y00
1995-062A    tC2017 08 05.18239 21 56 22.77 -01 38 17.3          13.8 R      Y00
1995-062A    tC2017 08 05.18337 21 56 44.03 -01 38 19.6          14.0 R      Y00
1995-062A    tC2017 08 05.18441 21 57 06.08 -01 38 22.0          13.1 R      Y00
1995-062A    tC2017 08 12.00737 22 06 06.25 -01 21 28.7          13.9 R      Y00
1995-062A    tC2017 08 12.00843 22 06 32.68 -01 21 44.5          13.7 R      Y00
1995-062A    tC2017 08 12.00949 22 07 00.44 -01 22 00.4          13.9 R      Y00
1995-062A     C2017 08 23.18405 23 55 12.09 -00 12 39.6          14.6 R      Y00
1995-062A     C2017 08 23.18541 23 55 23.74 -00 12 14.6          14.5 R      Y00
1995-062A     C2017 08 23.18682 23 55 35.81 -00 11 46.6          13.8 R      Y00
1995-062A     C2017 08 25.18337 00 06 22.33 +00 03 13.4          14.5 R      Y00
1995-062A     C2017 08 25.18437 00 06 31.27 +00 03 35.2          14.7 R      Y00
1995-062A     C2017 08 25.18536 00 06 40.18 +00 03 56.0          15.1 R      Y00
1995-062A     C2017 08 25.19227 00 07 42.73 +00 06 28.0          14.3 R      Y00
1995-062A     C2017 08 25.19327 00 07 51.71 +00 06 51.2          14.8 R      Y00
1995-062A     C2017 08 25.19425 00 08 00.84 +00 07 14.0          15.0 R      Y00
1995-062A    tC2017 08 29.07506 00 11 39.99 -00 01 24.2          14.9 R      Y00
1995-062A    tC2017 08 29.07609 00 11 51.24 -00 01 05.2          14.8 R      Y00
1995-062A    tC2017 08 29.07700 00 12 00.93 -00 00 47.4          14.3 R      Y00
1995-062A    tC2017 08 30.28025 00 59 39.43 +02 01 20.6          14.4 R      Y00
1995-062A    tC2017 08 30.28131 00 59 57.89 +02 02 19.2          14.7 R      Y00
1995-062A    tC2017 08 30.28291 01 00 25.81 +02 03 49.5          14.0 R      Y00
1995-062A    tC2017 09 01.31509 01 35 07.18 +03 42 59.6          14.3 R      Y00
1995-062A    tC2017 09 01.31609 01 35 38.54 +03 44 56.2          15.0 R      Y00
1995-062A    tC2017 09 01.31779 01 36 32.41 +03 48 13.5          14.4 R      Y00

Station data:
(Y00) SONEAR Observatory, Oliveira  (S20.715080 W44.784960)  Brazil.
   Observers C. Jacques, E. Pimentel, J. Barros. Measurer C. Jacques. 0.28-m
   f/2.2 astrograph + CCD.

Orbital elements:  1995-062A = NORAD 23715 = Infrared Space Observatory (ISO)
   Perigee 2017 Aug 24.604414 +/- 2.37e-5 TT = 14:30:21 (JD 2457990.104414)
Epoch 2017 Aug 25.0 TT = JDT 2457990.5                        Gray
M 145.26589 +/- 0.009               (J2000 equator)
n 367.21699519 +/- 0.00172          Peri.  152.80208 +/- 0.0015
a 41685.8176 +/- 0.13               Node    22.69778 +/- 0.0006
e   0.8338330 +/- 6.46e-5           Incl.    4.53280 +/- 0.00049
P1411.67m/0.980d           H 30.7   G  0.15   U  8.5
q 6926.80718 +/- 2.71    Q 76444.8281 +/- 2.48
27 of 66 observations 2017 Aug. 5-Sept. 1; mean residual 8".828
Residuals in arcseconds: 
160512 Y00(254'+ 1574-)   160715 Y00(8685+  587-)   170805 Y00 4.42+ .637-
160512 Y00(253'+ 1562-)   160715 Y00(8670+  584-)   170812 Y00 15.1- .366+
160512 Y00(252'+ 1551-)   160728 Y00(7507+  261-)   170812 Y00 34.3- .857+
160527 Y00(9701+  945-)   160728 Y00(7509+  259-)   170812 Y00 30.0- .796+
160527 Y00(9686+  939-)   160728 Y00(7513+  257-)   170823 Y00 .226- .068-
160527 Y00(9667+  933-)   160801 Y00(7555+  179-)   170823 Y00 .365- 1.06-
160530 Y00(8414+  399-)   160801 Y00(7563+  178-)   170823 Y00 .708- .122-
160530 Y00(8412+  397-)   160801 Y00(7576+  176-)   170825 Y00 2.72- .626-
160530 Y00(8415+  395-)   160803 Y00(7919+  106-)   170825 Y00 3.88- .493-
160702 Y00(365'+ 2706-)   160803 Y00(7932+  104-)   170825 Y00 4.24- 1.22-
160702 Y00(361'+ 2663-)   160803 Y00(7957+  101-)   170825 Y00 4.42- 1.46-
160702 Y00(358'+ 2630-)   160904 Y00(173'+  831-)   170825 Y00 6.03- .591-
160702 Y00(274'+ 1762-)   160904 Y00(172'+  826-)   170825 Y00 2.80- .253+
160702 Y00(272'+ 1742-)   160904 Y00(172'+  818-)   170829 Y00 8.45+ 2.68+
160702 Y00(270'+ 1728-)   160929 Y00(202'+  563+)   170829 Y00 13.1+ 1.53+
160706 Y00(185'+  964-)   160929 Y00(203'+  569+)   170829 Y00 13.6+ 1.48+
160706 Y00(184'+  954-)   160929 Y00(203'+  576+)   170830 Y00 .272+ 1.04+
160706 Y00(184'+  948-)   170805 Y00 18.9+ 2.97+    170830 Y00 1.48+ .694+
160714 Y00(202'+ 1478-)   170805 Y00 1.13+ .730+    170830 Y00 .860+ 1.19+
160714 Y00(202'+ 1466-)   170805 Y00 6.58- .601+    170901 Y00 17.4+ 2.88+
160714 Y00(201'+ 1451-)   170805 Y00 1.14+ .304-    170901 Y00 17.4+ 5.33+
160715 Y00(8703+  591-)   170805 Y00 5.44+ .379-    170901 Y00 14.6+ 5.27+

Ephemerides (geocentric):
Date (UTC) HH   RA              Dec         delta   r     elong  mag " sig PA
---- -- -- --  ------------   ------------  ------ ------ -----  --- ---- ---
2017 09 01 00  23 57 01.300   -01 44 18.96    76022 1.0097 159.9 15.3   10  84
2017 09 01 01  00 07 18.101   -01 32 55.54    74869 1.0097 157.4 15.3    9  84
2017 09 01 02  00 18 00.682   -01 20 51.56    72950 1.0096 154.8 15.4  7.8  83
2017 09 01 03  00 29 25.489   -01 07 48.31    70228 1.0096 152.1 15.4  6.7  83
2017 09 01 04  00 41 54.752   -00 53 19.74    66646 1.0096 149.0 15.3  5.9  83
2017 09 01 05  00 56 01.347   -00 36 46.96    62120 1.0095 145.6 15.3  5.6  83
2017 09 01 06  01 12 38.785   -00 17 06.75    56524 1.0095 141.5 15.2  6.1  84
2017 09 01 07  01 33 24.859   +00 07 34.56    49665 1.0094 136.4 15.1  8.4  84
2017 09 01 08  02 01 49.431   +00 41 12.29    41230 1.0093 129.4 14.8   15  85
2017 09 01 09  02 47 37.810   +01 33 51.30    30647 1.0092 118.0 14.5   38  86
2017 09 01 10  04 38 30.021   +03 21 51.81    16761 1.0091  90.4 14.2  187  87
2017 09 01 11  16 21 29.091   -03 08 23.19     9769 1.0091  85.3 13.2  804  93
2017 09 01 12  20 13 09.622   -04 26 29.18    25267 1.0092 142.7 13.4  153  89
2017 09 01 13  21 14 59.700   -04 02 14.79    37059 1.0093 157.8 13.8   81  88
2017 09 01 14  21 48 59.430   -03 41 17.96    46311 1.0094 165.9 14.0   56  87
2017 09 01 15  22 12 28.084   -03 23 57.79    53789 1.0094 171.1 14.1   43  86
2017 09 01 16  22 30 38.300   -03 09 03.95    59892 1.0095 174.1 14.2   35  86
2017 09 01 17  22 45 42.832   -02 55 47.90    64853 1.0095 174.8 Sha    29  86
2017 09 01 18  22 58 50.045   -02 43 37.77    68823 1.0095 173.4 14.6   25  85
2017 09 01 19  23 10 40.055   -02 32 11.53    71902 1.0095 171.2 14.8   21  85
2017 09 01 20  23 21 38.930   -02 21 12.85    74156 1.0095 168.9 14.9   19  85
2017 09 01 21  23 32 05.219   -02 10 28.65    75630 1.0095 166.6 15.1   16  85
2017 09 01 22  23 42 13.372   -01 59 47.53    76352 1.0095 164.3 15.2   14  84
